Shannon, Ireland

1:55 PM IST on August 17, 2017 (GMT +0100)
Shannon

Weather History for EINN - December, 2011

Change the Weather History Date:

Tuesday, December 20, 2011

  Actual Average Record
Temperature  
Mean Temperature 47 °F -  
Max Temperature 51 °F 47 °F 55 °F (2008)
Min Temperature 43 °F 37 °F 17 °F (2010)
Degree Days  
Heating Degree Days 18    
Moisture  
Dew Point 46 °F    
Average Humidity 93    
Maximum Humidity 100    
Minimum Humidity 81    
Precipitation  
Precipitation 0.12 in 0.13 in - ()
Sea Level Pressure  
Sea Level Pressure 30.03 in    
Wind  
Wind Speed 10 mph ()    
Max Wind Speed 22 mph    
Max Gust Speed 26 mph    
Visibility 4.5 miles    
Events Rain    
Averages and records for this station are not official NWS values.
T = Trace of Precipitation, MM = Missing Value Source: Averaged Metar Reports

Daily Weather History Graph

Daily Weather History Graph

Search for Another Location

Airport or City:

Trip Planner

Search our weather history database for the weather conditions in past years. The results will help you decide how hot, cold, wet, or windy it might be!

Date:

Astronomy

Dec. 20, 2011 Rise Set
Actual Time 8:44 AM GMT 4:21 PM GMT
Civil Twilight 8:02 AM GMT 5:03 PM GMT
Nautical Twilight 7:17 AM GMT 5:48 PM GMT
Astronomical Twilight 6:35 AM GMT 6:30 PM GMT
Moon 3:27 AM GMT (12/20) 1:07 PM GMT (12/20)
Length of Visible Light 9h 01m
Length of Day
7h 37m
Waning Crescent, 23% of the Moon is Illuminated
Dec 20
Waning Crescent
Dec 24
New
Jan 1
First Quarter
Jan 9
Full
Jan 16
Last Quarter

Hourly Weather History & Observations

Time (GMT) Temp. Windchill Dew Point Humidity Pressure Visibility Wind Dir Wind Speed Gust Speed Precip Events Conditions
12:00 AM 46 °F - 42 °F 82% 30.04 in 12 mi West 11.2 mph - -   Partly Cloudy
12:00 AM 46.4 °F 41.1 °F 42.8 °F 87% 30.04 in 6.2 mi West 11.5 mph - N/A   Mostly Cloudy
12:30 AM 46.4 °F 40.7 °F 42.8 °F 87% 30.01 in 6.2 mi West 12.7 mph - N/A Rain Light Rain
1:00 AM 46.4 °F 41.1 °F 42.8 °F 87% 30.01 in 6.2 mi West 11.5 mph - N/A   Scattered Clouds
1:30 AM 46.4 °F 40.7 °F 42.8 °F 87% 30.04 in 6.2 mi West 12.7 mph - N/A   Mostly Cloudy
2:00 AM 46.4 °F 41.5 °F 41.0 °F 81% 30.04 in 6.2 mi West 10.4 mph - N/A   Mostly Cloudy
2:30 AM 46.4 °F 40.7 °F 41.0 °F 81% 30.04 in 6.2 mi West 12.7 mph - N/A Rain Light Rain
3:00 AM 46.4 °F 40.4 °F 41.0 °F 81% 30.04 in 6.2 mi West 13.8 mph - N/A   Mostly Cloudy
3:30 AM 46.4 °F 41.5 °F 41.0 °F 81% 30.04 in 6.2 mi West 10.4 mph - N/A   Mostly Cloudy
4:00 AM 46.4 °F 41.9 °F 42.8 °F 87% 30.06 in 6.2 mi West 9.2 mph - N/A   Mostly Cloudy
4:30 AM 46.4 °F 40.1 °F 42.8 °F 87% 30.06 in 6.2 mi NW 15.0 mph 26.5 mph N/A   Mostly Cloudy
5:00 AM 44.6 °F 40.7 °F 42.8 °F 93% 30.06 in 6.2 mi West 6.9 mph - N/A   Mostly Cloudy
5:30 AM 46.4 °F 45.2 °F 42.8 °F 87% 30.06 in 6.2 mi West 3.5 mph - N/A   Mostly Cloudy
6:00 AM 46 °F - 42 °F 82% 30.07 in 12 mi West 6.7 mph - -   Partly Cloudy
6:00 AM 46.4 °F 43.5 °F 42.8 °F 87% 30.06 in 6.2 mi West 5.8 mph - N/A   Mostly Cloudy
6:30 AM 46.4 °F 43.5 °F 42.8 °F 87% 30.09 in 6.2 mi WNW 5.8 mph - N/A   Mostly Cloudy
7:00 AM 44.6 °F 42.2 °F 41.0 °F 87% 30.06 in 6.2 mi West 4.6 mph - N/A   Mostly Cloudy
7:30 AM 44.6 °F 40.7 °F 42.8 °F 93% 30.06 in 6.2 mi SW 6.9 mph - N/A   Mostly Cloudy
8:00 AM 44.6 °F 40.7 °F 42.8 °F 93% 30.09 in 6.2 mi WSW 6.9 mph - N/A   Mostly Cloudy
8:30 AM 44.6 °F 41.4 °F 42.8 °F 93% 30.09 in 6.2 mi WSW 5.8 mph - N/A   Mostly Cloudy
9:00 AM 44.6 °F 41.4 °F 42.8 °F 93% 30.06 in 6.2 mi SW 5.8 mph - N/A   Mostly Cloudy
9:30 AM 44.6 °F 42.2 °F 41.0 °F 87% 30.09 in 6.2 mi SSW 4.6 mph - N/A   Mostly Cloudy
10:00 AM 44.6 °F 41.4 °F 42.8 °F 93% 30.09 in 6.2 mi SSW 5.8 mph - N/A   Mostly Cloudy
10:30 AM 44.6 °F 42.2 °F 42.8 °F 93% 30.12 in 6.2 mi SW 4.6 mph - N/A   Mostly Cloudy
11:00 AM 44.6 °F 41.4 °F 42.8 °F 93% 30.12 in 6.2 mi SW 5.8 mph - N/A   Mostly Cloudy
11:30 AM 46.4 °F 42.9 °F 44.6 °F 93% 30.09 in 6.2 mi SW 6.9 mph - N/A   Light Drizzle
12:00 PM 46 °F - 44 °F 90% 30.10 in 8 mi SW 6.7 mph - - Rain Light Drizzle
12:00 PM 46.4 °F 42.9 °F 44.6 °F 93% 30.09 in 6.2 mi SW 6.9 mph - N/A   Light Drizzle
12:30 PM 46.4 °F 43.5 °F 44.6 °F 93% 30.06 in 6.2 mi SW 5.8 mph - N/A   Light Drizzle
1:00 PM 46.4 °F 41.5 °F 44.6 °F 93% 30.06 in 1.2 mi SW 10.4 mph - N/A   Light Drizzle
1:30 PM 46.4 °F 43.5 °F 44.6 °F 93% 30.04 in 1.1 mi South 5.8 mph - N/A   Light Drizzle
2:00 PM 46.4 °F 42.9 °F 46.4 °F 100% 30.04 in 1.1 mi SSE 6.9 mph - N/A   Light Drizzle
2:30 PM 46.4 °F 42.4 °F 46.4 °F 100% 30.04 in 1.1 mi SSE 8.1 mph - N/A   Light Drizzle
3:00 PM 48.2 °F - 46.4 °F 93% 30.01 in 1.6 mi South 9.2 mph - N/A   Light Drizzle
3:30 PM 48.2 °F - 48.2 °F 100% 29.98 in 1.9 mi South 10.4 mph - N/A   Light Drizzle
4:00 PM 48.2 °F - 48.2 °F 100% 29.98 in 2.2 mi South 9.2 mph - N/A Rain Light Rain
4:30 PM 48.2 °F - 48.2 °F 100% 29.98 in 1.9 mi South 9.2 mph - N/A Rain Light Rain
5:00 PM 50.0 °F - 48.2 °F 94% 29.98 in 1.6 mi SSW 9.2 mph - N/A   Light Drizzle
5:30 PM 50.0 °F - 50.0 °F 100% 29.95 in 1.1 mi SW 16.1 mph - N/A   Drizzle
6:00 PM 50 °F - 50 °F 99% 29.96 in 2 mi WSW 15.7 mph - - Rain Light Drizzle
6:00 PM 50.0 °F - 50.0 °F 100% 29.95 in 1.6 mi WSW 17.3 mph - N/A   Light Drizzle
6:30 PM 51.8 °F - 51.8 °F 100% 29.98 in 1.5 mi WSW 20.7 mph - N/A   Light Drizzle
7:00 PM 51.8 °F - 51.8 °F 100% 29.95 in 1.7 mi WSW 21.9 mph - N/A   Light Drizzle
7:30 PM 51.8 °F - 51.8 °F 100% 29.98 in 1.9 mi WSW 21.9 mph - N/A Rain Light Rain
8:00 PM 51.8 °F - 50.0 °F 94% 29.98 in 1.7 mi WSW 18.4 mph - N/A Rain Light Rain
8:30 PM 51.8 °F - 51.8 °F 100% 29.98 in 1.9 mi West 13.8 mph - N/A Rain Light Rain
9:00 PM 51.8 °F - 51.8 °F 100% 29.98 in 1.6 mi West 21.9 mph - N/A   Light Drizzle
9:30 PM 51.8 °F - 51.8 °F 100% 29.98 in 1.9 mi West 20.7 mph - N/A   Light Drizzle
10:00 PM 51.8 °F - 51.8 °F 100% 29.98 in 2.2 mi West 17.3 mph - N/A   Light Drizzle
10:30 PM 51.8 °F - 51.8 °F 100% 30.01 in 1.9 mi West 18.4 mph - N/A   Light Drizzle
11:00 PM 51.8 °F - 51.8 °F 100% 30.01 in 1.9 mi West 17.3 mph - N/A   Light Drizzle
11:30 PM 51.8 °F - 51.8 °F 100% 30.01 in 2.2 mi West 15.0 mph - N/A   Light Drizzle